Location: Unspecified
(0.0000°N, 0.0000°E)
Time: 10:12:13
(UTC+00:00)

Vanguard 3 - All Passes

Search period start: 01 February 2015 00:00
Search period end: 11 February 2015 00:00
Orbit: 509 x 3275 km, 33.4° (Epoch: 30 January)

Date Brightness Start Highest point End Pass type
(mag) Time Alt. Az. Time Alt. Az. Time Alt. Az.
01 Feb - 01:44:22 10° WNW 02:01:40 72° SW 02:11:33 10° SE visible
01 Feb - 04:07:40 10° W 04:15:07 18° SW 04:20:04 10° S visible
01 Feb - 13:07:08 10° SW 13:12:20 83° SE 13:21:34 10° NE daylight
01 Feb - 15:19:47 10° WNW 15:26:39 29° NNW 15:37:13 10° NNE daylight
01 Feb - 17:37:46 10° NW 17:45:13 16° N 17:54:13 10° NNE daylight
01 Feb - 19:56:21 10° NNW 20:07:19 19° NNE 20:19:47 10° NE visible
01 Feb - 22:11:49 10° NNW 22:29:01 36° NNE 22:43:46 10° E visible
02 Feb - 00:28:09 10° NW 00:47:26 79° NE 00:59:28 10° ESE visible
02 Feb - 02:48:28 10° WNW 03:02:05 37° SW 03:10:15 10° SSE visible
02 Feb - 11:56:21 10° SSW 12:00:24 34° SE 12:06:35 10° ENE daylight
02 Feb - 14:07:04 10° W 14:12:52 41° NNW 14:22:39 10° NE daylight
02 Feb - 16:22:47 10° NW 16:29:24 18° N 16:37:54 10° NNE daylight
02 Feb - 18:41:57 10° NNW 18:49:58 15° N 18:59:36 10° NE visible
02 Feb - 20:57:32 10° NNW 21:12:10 27° NNE 21:27:09 10° ENE visible
02 Feb - 23:12:46 10° NW 23:32:11 57° NNE 23:46:21 10° ESE visible
03 Feb - 01:30:51 10° WNW 01:48:35 62° SW 01:59:08 10° SE visible
03 Feb - 03:55:47 10° WSW 04:02:36 15° SW 04:07:12 10° S visible
03 Feb - 10:47:28 10° SSE 10:48:35 11° SE 10:50:03 10° ESE daylight
03 Feb - 12:55:10 10° WSW 13:00:01 72° NNW 13:08:21 10° NE daylight
03 Feb - 15:08:43 10° WNW 15:14:37 21° NNW 15:22:57 10° NNE daylight
03 Feb - 17:27:24 10° NNW 17:33:15 13° N 17:40:11 10° NNE daylight
03 Feb - 19:43:43 10° NNW 19:54:59 20° NNE 20:08:12 10° ENE visible
03 Feb - 21:58:08 10° NW 22:16:05 42° NNE 22:31:49 10° E visible
04 Feb - 00:14:24 10° NW 00:34:15 90° SSE 00:47:06 10° SE visible
04 Feb - 02:35:37 10° W 02:49:12 32° SW 02:57:39 10° SSE visible
04 Feb - 11:44:01 10° SW 11:48:01 47° SE 11:54:03 10° ENE daylight
04 Feb - 13:55:37 10° W 14:00:47 29° NNW 14:08:48 10° NNE daylight
04 Feb - 16:12:36 10° NW 16:17:28 14° N 16:23:12 10° NNE daylight
04 Feb - 18:30:21 10° NNW 18:37:53 15° N 18:47:16 10° NE visible
04 Feb - 20:44:12 10° NNW 20:59:25 30° NNE 21:15:25 10° E visible
04 Feb - 22:59:01 10° NW 23:18:59 66° NNE 23:34:03 10° ESE visible
05 Feb - 01:17:28 10° WNW 01:35:26 54° SW 01:46:34 10° SE visible
05 Feb - 03:44:10 10° WSW 03:50:09 14° SW 03:54:13 10° S visible
05 Feb - 10:33:57 10° S 10:36:16 15° SE 10:39:05 10° ESE daylight
05 Feb - 12:43:21 10° WSW 12:47:50 49° NNW 12:55:05 10° NE daylight
05 Feb - 14:58:07 10° NW 15:02:41 16° NNW 15:08:25 10° NNE daylight
05 Feb - 17:17:17 10° NNW 17:21:18 12° N 17:26:05 10° NNE daylight
05 Feb - 19:30:55 10° NNW 19:42:32 22° NNE 19:56:35 10° ENE visible
05 Feb - 21:44:31 10° NW 22:02:57 48° NNE 22:19:39 10° ESE visible
06 Feb - 00:00:47 10° WNW 00:20:55 80° SW 00:34:34 10° SE visible
06 Feb - 02:22:56 10° W 02:36:21 28° SW 02:44:57 10° SSE visible
06 Feb - 11:31:48 10° SW 11:35:42 70° SE 11:41:26 10° ENE daylight
06 Feb - 13:44:28 10° WNW 13:48:48 20° NNW 13:54:48 10° NNE daylight
06 Feb - 16:04:06 10° N 16:05:35 10° N 16:07:03 10° N daylight
06 Feb - 18:18:22 10° NNW 18:25:44 15° NNE 18:35:15 10° NE visible
06 Feb - 20:30:52 10° NNW 20:46:30 34° NNE 21:03:25 10° E visible
06 Feb - 22:45:22 10° NW 23:05:35 75° NE 23:21:32 10° ESE visible
07 Feb - 01:04:15 10° WNW 01:22:13 47° SW 01:33:54 10° SSE visible
07 Feb - 03:32:50 10° SW 03:37:46 12° SSW 03:41:04 10° SSW visible
07 Feb - 10:21:03 10° SSW 10:23:59 22° SE 10:27:27 10° E daylight
07 Feb - 12:31:43 10° W 12:35:44 32° NNW 12:41:41 10° NE daylight
07 Feb - 14:48:49 10° NNW 14:50:48 11° N 14:52:48 10° N daylight
07 Feb - 17:07:40 10° N 17:09:23 10° N 17:11:38 10° NNE daylight
07 Feb - 19:17:59 10° NNW 19:29:55 24° NNE 19:44:49 10° ENE visible
07 Feb - 21:31:00 10° NW 21:49:38 55° NNE 22:07:14 10° ESE visible
07 Feb - 23:47:20 10° WNW 00:07:29 71° SW 00:21:53 10° SE visible
08 Feb - 02:10:27 10° W 02:23:32 25° SW 02:32:12 10° SSE visible
08 Feb - 11:19:42 10° WSW 11:23:29 74° NW 11:28:42 10° NE daylight
08 Feb - 13:33:56 10° NW 13:36:54 14° NNW 13:40:21 10° NNE daylight
08 Feb - 18:06:02 10° NNW 18:13:29 16° NNE 18:23:26 10° NE daylight
08 Feb - 20:17:34 10° NNW 20:33:24 39° NNE 20:51:11 10° E visible
08 Feb - 22:31:52 10° NW 22:52:03 85° NE 23:08:51 10° SE visible
09 Feb - 00:51:13 10° WNW 01:09:00 42° SW 01:21:07 10° SSE visible
09 Feb - 03:21:51 10° SW 03:25:27 11° SSW 03:27:43 10° SSW visible
09 Feb - 10:08:22 10° SSW 10:11:44 34° SE 10:15:31 10° ENE daylight
09 Feb - 12:20:21 10° WNW 12:23:44 21° NNW 12:28:07 10° NNE daylight
09 Feb - 19:05:00 10° NNW 19:17:10 27° NNE 19:32:51 10° E visible
09 Feb - 21:17:35 10° NW 21:36:09 63° NE 21:54:35 10° ESE visible
09 Feb - 23:34:02 10° WNW 23:53:58 62° SW 00:09:01 10° SE visible
10 Feb - 01:58:09 10° WSW 02:10:46 22° SSW 02:19:22 10° SSE visible
10 Feb - 08:58:13 10° S 08:59:39 12° SSE 09:01:10 10° SE daylight
10 Feb - 11:07:45 10° WSW 11:11:19 44° NNW 11:15:51 10° NE daylight
10 Feb - 17:53:27 10° N 18:01:07 17° NNE 18:11:41 10° ENE daylight
10 Feb - 20:04:20 10° NNW 20:20:08 44° NNE 20:38:41 10° E visible
10 Feb - 22:18:31 10° NW 22:38:25 86° SW 22:55:57 10° SE visible
